St. Johns, AZ

7:30 PM MST on May 29, 2017 (GMT -0700)
Saint Johns Industrial

Weather History for KSJN - November, 2011

Change the Weather History Date:

Friday, November 11, 2011

  Actual Average (KLSB) Record (KLSB)
Temperature  
Mean Temperature 42 °F -  
Max Temperature 55 °F 68 °F 77 °F (2013)
Min Temperature 30 °F 31 °F 33 °F (2015)
Degree Days  
Heating Degree Days 22    
Moisture  
Dew Point 22 °F    
Average Humidity 52    
Maximum Humidity 73    
Minimum Humidity 22    
Precipitation  
Precipitation 0.00 in - - ()
Sea Level Pressure  
Sea Level Pressure 30.05 in    
Wind  
Wind Speed 2 mph (SSW)    
Max Wind Speed 8 mph    
Max Gust Speed -    
Visibility 10 miles    
Events      
Averages and records for this station are not official NWS values.
T = Trace of Precipitation, MM = Missing Value Source: NWS Daily Summary

Daily Weather History Graph

Daily Weather History Graph

Search for Another Location

Airport or City:

Trip Planner

Search our weather history database for the weather conditions in past years. The results will help you decide how hot, cold, wet, or windy it might be!

Date:

Astronomy

Nov. 11, 2011 Rise Set
Actual Time 6:46 AM MST 5:15 PM MST
Civil Twilight 6:20 AM MST 5:42 PM MST
Nautical Twilight 5:50 AM MST 6:12 PM MST
Astronomical Twilight 5:20 AM MST 6:42 PM MST
Moon 5:51 PM MST (11/11) 7:34 AM MST (11/11)
Length of Visible Light 11h 21m
Length of Day
10h 28m
Full, 99% of the Moon is Illuminated
Nov 11
Full
Nov 18
Last Quarter
Nov 24
New
Dec 2
First Quarter
Dec 10
Full

Hourly Weather History & Observations

Time (MST) Temp. Windchill Dew Point Humidity Pressure Visibility Wind Dir Wind Speed Gust Speed Precip Events Conditions
12:54 AM 33.8 °F - 21.2 °F 60% 30.22 in 10.0 mi Calm Calm - N/A   Clear
1:54 AM 30.9 °F 27.5 °F 21.9 °F 69% 30.13 in 10.0 mi Variable 3.5 mph - N/A   Clear
2:54 AM 32.0 °F 28.7 °F 24.1 °F 73% 30.11 in 10.0 mi West 3.5 mph - N/A   Clear
3:54 AM 30.9 °F - 23.0 °F 72% 30.10 in 10.0 mi Calm Calm - N/A   Clear
4:54 AM 30.9 °F - 23.0 °F 72% 30.10 in 10.0 mi Calm Calm - N/A   Clear
5:54 AM 30.9 °F 27.5 °F 23.0 °F 72% 30.10 in 10.0 mi SE 3.5 mph - N/A   Clear
6:54 AM 32.0 °F 27.5 °F 23.0 °F 69% 30.12 in 10.0 mi South 4.6 mph - N/A   Clear
7:54 AM 32.0 °F - 24.1 °F 73% 30.12 in 10.0 mi Calm Calm - N/A   Clear
8:54 AM 36.0 °F - 24.1 °F 62% 30.12 in 10.0 mi Calm Calm - N/A   Clear
9:54 AM 41.0 °F - 24.1 °F 51% 30.10 in 10.0 mi Calm Calm - N/A   Clear
10:54 AM 43.0 °F 40.3 °F 24.1 °F 47% 30.06 in 10.0 mi East 4.6 mph - N/A   Clear
11:54 AM 46.9 °F - 21.9 °F 37% 30.06 in 10.0 mi West 6.9 mph - N/A   Clear
12:54 PM 48.9 °F - 21.9 °F 35% 30.03 in 10.0 mi NW 8.1 mph - N/A   Clear
1:54 PM 50.0 °F - 21.0 °F 32% 30.02 in 10.0 mi Calm Calm - N/A   Clear
2:54 PM 51.1 °F - 21.0 °F 31% 30.01 in 10.0 mi Calm Calm - N/A   Overcast
3:54 PM 55.0 °F - 16.0 °F 22% 29.97 in 10.0 mi SW 8.1 mph - N/A   Overcast
4:54 PM 53.1 °F - 18.0 °F 25% 29.96 in 10.0 mi NNE 3.5 mph - N/A   Overcast
5:54 PM 48.9 °F - 23.0 °F 36% 29.98 in 10.0 mi Calm Calm - N/A   Scattered Clouds
6:54 PM 46.9 °F - 21.0 °F 36% 29.97 in 10.0 mi Calm Calm - N/A   Clear
7:54 PM 42.1 °F 39.2 °F 23.0 °F 47% 29.99 in 10.0 mi SSE 4.6 mph - N/A   Clear
8:54 PM 36.0 °F 33.3 °F 24.1 °F 62% 30.01 in 10.0 mi WSW 3.5 mph - N/A   Clear
9:54 PM 39.9 °F - 23.0 °F 51% 29.97 in 10.0 mi Calm Calm - N/A   Clear
10:54 PM 39.2 °F - 23.0 °F 52% 30.04 in 10.0 mi Calm Calm - N/A   Clear
11:54 PM 37.9 °F 35.5 °F 25.0 °F 60% 29.96 in 10.0 mi SE 3.5 mph - N/A   Clear